AirNav  
 
 366 users online  

8KY6 Caintuckee Airport
Independence, Kentucky, USA


FAA INFORMATION EFFECTIVE 07 DECEMBER 2017

Location

FAA Identifier: 8KY6
Lat/Long: 38-56-07.9000N / 084-34-05.8000W
38-56.131667N / 084-34.096667W
38.9355278 / -84.5682778
(estimated)
Elevation: 930 ft. / 283 m (estimated)
From city: 4 miles W of INDEPENDENCE, KY
Time zone: UTC -5 (UTC -4 during Daylight Saving Time)
Zip code: 41051

Airport Operations

Airport use: Private use. Permission required prior to landing
Activation date: 09/2009
Control tower: no
ARTCC: INDIANAPOLIS CENTER
FSS: LOUISVILLE FLIGHT SERVICE STATION
Attendance: UNATNDD
Wind indicator: yes
Segmented circle: no

Airport Communications

WX ASOS at CVG (8 nm NW): PHONE 859-767-8210
WX ASOS at LUK (12 nm NE): PHONE 513-321-6291
WX AWOS-3 at K62 (16 nm SE): 123.825 (859-654-1345)
WX AWOS-3 at I69 (19 nm NE): 127.275 (513-732-6978)

Nearby radio navigation aids

VOR radial/distance  VOR name  Freq  Var
CVGr131/7.9CINCINNATI VORTAC117.3004W
FLMr329/21.0FALMOUTH VOR/DME117.0004W

 
NDB name  Hdg/Dist  Freq  Var  ID
CINCINNATI222/17.133504WLUK .-.. ..- -.-
SPORTYS247/18.524504WPWF .--. .-- ..-.
MADEIRA214/19.937904WMDE -- -.. .
HOOK FIELD193/34.323904WHKF .... -.- ..-.

Airport Services

Runway Information

Runway 10/28

Dimensions: 2000 x 65 ft. / 610 x 20 m
Surface: turf
RUNWAY 10  RUNWAY 28
Traffic pattern: leftright
Obstructions: none295 ft. tower, 3168 ft. from runway

Airport Ownership and Management from official FAA records

Ownership: Privately-owned
Owner: RODNEY SCOTT CAIN
445 BRISTOW ROAD
INDEPENDENCE, KY 41051
Phone 859-356-9306
Manager: DAVID A. CAIN
445 BRISTOW ROAD
INDEPENDENCE, KY 41051
Phone 859-912-9778

Airport Operational Statistics

Aircraft based on the field: 3
Single engine airplanes: 3
    

Instrument Procedures

There are no published instrument procedures at 8KY6.

Some nearby airports with instrument procedures:

KCVG - Cincinnati/Northern Kentucky International Airport (8 nm NW)
KLUK - Cincinnati Municipal Airport-Lunken Field (12 nm NE)
K62 - Gene Snyder Airport (16 nm SE)
I69 - Clermont County Airport (19 nm NE)
I67 - Cincinnati West Airport (22 nm NW)
 
Loc | Ops | Rwys | IFR | FBO | Links
Com | Nav | Svcs | Stats | Notes


 
Aerial photo
WARNING: Photo may not be current or correct
Aerial photo of 8KY6 (Caintuckee Airport)
Taken in the Summer of 2008

Do you have a better or more recent aerial photo of Caintuckee Airport that you would like to share? If so, please send us your photo.

 
Sectional chart

 
Airport distance calculator
Flying to Caintuckee Airport? Find the distance to fly.

From to 8KY6

Sunrise and sunset
Times for 14-Dec-2017
 Local
(UTC-5)
 Zulu
(UTC)
Morning civil twilight07:2012:20
Sunrise07:5012:50
Sunset17:1622:16
Evening civil twilight17:4622:46

Current date and time
Zulu (UTC)  14-Dec-2017 07:38:13
Local (UTC-5)  14-Dec-2017 02:38:13
 
METAR
KCVG 
8nm NW 
140652Z 30019G33KT 10SM OVC026 02/M03 A2968 RMK AO2 PK WND 30034/0642 SLP054 T00171033
KLUK 
12nm NE 
140653Z AUTO 29016G35KT 10SM OVC033 03/M04 A2970 RMK AO2 PK WND 26035/0649 PRESRR SLP061 T00281039
KI69 
19nm NE 
140715Z AUTO 30015G31KT 10SM OVC027 02/M04 A2969 RMK AO2 T00201041
TAF
KCVG 
8nm NW 
140538Z 1406/1512 28022G30KT P6SM SCT028 OVC040 TEMPO 1406/1408 BKN028 FM140900 30016G23KT P6SM BKN025 FM141200 34010KT P6SM BKN025 FM141600 36008KT P6SM SCT030 OVC150 FM150200 VRB03KT P6SM OVC150 FM151000 20005KT P6SM BKN035
KLUK 
12nm NE 
140538Z 1406/1506 28022G30KT P6SM SCT030 OVC040 TEMPO 1406/1408 BKN030 FM140900 30015G22KT P6SM BKN028 FM141200 33008KT P6SM BKN025 FM141600 35006KT P6SM SCT030 OVC150 FM150200 VRB02KT P6SM OVC150
NOTAMs
Click for the latest NOTAMs
NOTAMs are issued by the DoD/FAA and will open in a separate window not controlled by AirNav.

 

 
 

Would you like to see your business listed on this page?

 If your business provides an interesting product or service to pilots, flight crews, aircraft, or users of the Caintuckee Airport, you should consider listing it here.  To start the listing process, click on the button below
 
Add a business
 

Other Pages about Caintuckee Airport

Update a link
 
Copyright © AirNav, LLC. All rights reserved. Privacy Policy  Contact